Temp
63 63 62 62 63 63 63 63 63 63 63 63 63 63 63 63 63 69 76 84 84 80 79 92 91 92 94 91 94 94 78 71 70 68 64 77 84 91 93 90 90 91 86 88 91
63 62 62 62 62 62 62 62 63 63 63 63 63 63 63 63 69 75 82 80 79 78 87 88 86 90 87 88 90 86 76 69 79 77 69 76 72 76 88 87 84 88 90 92 93
62 62 61 61 62 62 62 62 62 62 62 63 63 63 63 65 70 83 79 79 78 79 88 94 94 91 85 90 88 87 78 80 81 86 76 70 72 75 87 82 85 83 86 90 90
61 61 61 61 61 61 61 61 61 61 61 62 63 63 64 71 72 87 80 79 78 87 88 87 92 86 83 83 91 83 90 89 91 88 90 84 88 74 80 73 80 91 91 90 87
61 60 60 60 60 61 61 61 60 61 61 62 63 64 65 72 81 91 80 80 86 85 85 85 87 87 81 87 89 87 89 92 94 90 93 93 77 70 75 76 84 92 91 89 88
60 60 60 60 60 60 60 60 60 61 62 63 64 64 70 72 95 97 95 91 90 88 86 89 90 93 88 88 87 91 91 92 95 94 93 90 85 84 78 84 86 88 87 89 89
60 60 60 60 60 60 60 59 60 62 65 66 65 70 76 82 96 98 96 94 92 91 87 92 96 91 91 87 94 92 85 89 91 92 90 92 84 83 83 90 88 87 85 86 88
59 59 59 59 59 59 58 58 59 63 66 65 66 74 77 95 99 94 97 94 96 96 94 97 98 93 90 93 90 85 85 77 89 91 93 90 77 79 81 70 86 87 86 86 87
59 59 59 59 58 58 57 58 61 65 67 67 70 74 79 86 89 95 97 91 93 94 96 99 95 88 87 80 78 82 73 77 82 94 91 89 78 78 73 73 85 87 87 88 86
58 58 58 58 58 57 56 58 68 66 71 79 82 77 87 85 90 92 96 94 89 89 87 86 86 79 80 77 66 73 76 79 80 89 90 86 80 72 72 70 68 87 88 88 88
58 58 58 57 57 56 62 83 75 73 77 80 82 83 85 92 94 90 93 90 90 85 75 81 75 69 75 79 81 82 81 80 85 92 89 86 80 74 72 73 71 86 87 88 89
58 58 57 57 56 56 65 80 80 82 72 87 86 85 88 91 83 87 93 83 81 73 79 77 69 79 83 84 81 80 78 79 87 92 90 87 83 71 72 69 73 76 88 89 90
58 57 57 56 56 66 82 81 90 88 72 81 85 85 85 88 83 83 88 85 79 75 76 72 78 83 81 80 78 79 76 78 80 88 91 88 81 67 70 72 73 72 91 91 91
58 57 56 55 61 85 83 88 92 89 66 73 77 82 84 86 78 89 89 84 81 74 78 77 83 81 79 77 80 73 84 82 81 79 73 87 69 77 73 75 69 81 90 91 92
57 57 56 54 68 81 85 92 90 84 52 75 78 89 86 80 81 81 89 83 74 77 78 74 78 78 76 79 82 76 85 82 81 77 77 78 74 79 83 78 69 68 85 93 93
57 56 54 71 70 85 91 91 85 63 53 69 78 75 75 79 79 82 80 85 84 76 78 78 86 84 81 84 84 85 81 80 80 76 65 74 75 76 80 76 74 69 71 94 95
55 54 55 75 79 90 90 82 62 56 76 67 70 74 74 74 74 74 74 73 69 64 65 73 75 82 84 77 83 81 74 61 60 62 61 77 73 76 88 86 79 78 82 93 96
54 52 67 81 89 89 83 70 54 69 69 74 72 71 67 74 73 74 70 68 76 74 68 64 63 76 82 78 74 76 74 63 52 58 64 76 69 76 90 95 92 85 86 90 89
53 76 77 86 88 85 73 60 62 65 69 68 69 65 67 72 68 69 68 68 74 75 63 63 65 81 83 83 80 73 69 79 68 72 66 72 77 85 91 92 95 89 82 78 83
64 76 82 89 89 81 69 58 65 70 69 68 60 66 61 67 65 66 66 73 70 74 74 66 56 73 79 83 81 76 80 67 70 55 55 67 71 74 81 86 92 94 92 81 76
67 73 83 90 87 75 63 62 67 72 69 64 62 61 63 63 65 64 65 71 72 72 72 68 62 62 72 71 70 71 69 72 72 69 59 58 68 88 85 88 90 94 96 83 83
76 69 85 88 69 74 64 65 56 68 70 66 65 63 61 62 60 61 61 66 72 71 62 69 63 56 63 75 80 76 71 72 63 60 65 68 70 91 90 94 94 94 97 99 79
69 75 86 85 62 66 66 66 66 64 65 63 61 64 64 59 53 59 61 70 69 65 61 65 59 51 55 65 73 69 72 73 74 72 62 62 68 88 91 93 94 93 95 96 96
68 66 75 76 74 66 62 62 60 66 63 63 60 63 60 57 62 56 59 65 66 64 62 63 58 53 49 58 63 62 68 72 71 64 65 67 72 81 82 80 88 91 95 96 96
73 66 67 59 62 63 63 61 58 55 62 63 58 57 54 50 53 54 59 60 64 63 61 61 50 55 58 61 62 62 64 66 65 68 63 69 70 78 69 71 79 85 93 92 93
65 66 70 64 63 61 55 54 52 54 57 56 54 57 57 48 52 49 55 56 55 59 56 58 46 52 51 57 58 57 63 64 65 69 70 70 67 78 72 76 78 82 81 86 86
73 73 69 58 61 59 53 53 52 54 58 59 56 54 52 55 59 62 62 61 60 55 52 51 46 44 41 54 54 49 58 63 64 68 68 62 69 75 75 76 76 76 73 80 85
MSLP
1017.73 1017.29 1016.90 1016.43 1015.83 1015.34 1014.86 1014.32 1013.87 1013.43 1013.16 1012.89 1012.64 1012.40 1012.18 1012.06 1011.96 1011.40 1009.04 1007.36 1007.34 1007.76 1007.89 1006.83 1006.70 1005.90 1005.25 1004.26 1003.74 1003.17 1003.39 1003.54 1004.16 1004.66 1005.22 1003.83 1002.49 1002.24 1001.92 1002.65 1003.68 1004.09 1005.58 1006.87 1007.98
1017.78 1017.23 1016.76 1016.28 1015.72 1015.14 1014.68 1014.19 1013.68 1013.26 1012.90 1012.66 1012.42 1012.24 1012.12 1012.05 1011.18 1009.04 1007.29 1007.16 1007.33 1007.71 1007.42 1006.16 1005.60 1005.19 1004.38 1003.72 1003.14 1002.69 1002.64 1003.84 1003.57 1004.38 1004.78 1003.43 1003.52 1002.90 1002.73 1002.91 1004.29 1004.22 1005.32 1006.64 1007.52
1017.81 1017.25 1016.64 1016.04 1015.54 1014.99 1014.40 1013.96 1013.48 1013.05 1012.66 1012.37 1012.18 1012.00 1011.92 1011.84 1009.94 1006.12 1006.88 1007.06 1007.17 1007.45 1007.05 1005.43 1004.72 1004.39 1003.76 1003.09 1002.60 1002.10 1001.98 1002.22 1002.36 1001.99 1003.91 1001.58 1004.87 1003.90 1002.24 1003.14 1004.24 1004.61 1005.46 1006.31 1007.18
1017.78 1017.22 1016.65 1015.96 1015.26 1014.74 1014.19 1013.61 1013.19 1012.72 1012.32 1012.08 1011.98 1011.88 1011.85 1011.22 1007.36 1005.94 1006.38 1006.61 1006.92 1006.94 1006.75 1005.57 1004.00 1003.68 1003.06 1002.30 1001.74 1001.31 1000.84 1000.72 1000.75 1001.43 1001.09 1001.52 1001.66 1003.43 1002.60 1005.11 1004.70 1004.39 1005.26 1006.26 1007.24
1017.78 1017.18 1016.58 1015.86 1015.14 1014.45 1013.82 1013.32 1012.85 1012.32 1011.92 1011.76 1011.76 1011.76 1011.76 1009.20 1005.64 1005.27 1005.91 1006.33 1006.50 1006.66 1005.96 1004.97 1003.44 1002.95 1002.41 1001.66 1001.14 1000.51 1000.36 1000.02 999.70 1000.52 1000.32 1000.66 1001.94 1004.28 1004.23 1004.16 1004.64 1004.75 1005.48 1006.30 1007.31
1017.71 1017.03 1016.45 1015.84 1014.99 1014.26 1013.56 1012.99 1012.46 1012.03 1011.48 1011.46 1011.51 1011.72 1010.67 1006.95 1004.52 1004.47 1004.72 1005.30 1005.44 1005.65 1005.31 1004.35 1002.94 1002.44 1002.00 1001.30 1000.57 1000.16 999.89 999.63 999.20 999.37 999.74 1000.58 1001.54 1002.80 1004.29 1003.89 1004.83 1005.36 1006.15 1006.63 1007.24
1017.72 1016.98 1016.25 1015.58 1014.92 1014.13 1013.36 1012.79 1012.21 1011.72 1011.28 1011.05 1011.24 1011.11 1008.45 1004.99 1004.42 1004.18 1004.33 1004.06 1004.83 1004.79 1004.53 1003.82 1002.64 1002.18 1001.98 1001.09 1000.62 1000.09 999.64 999.24 998.97 999.05 999.46 1000.56 1001.46 1002.65 1003.08 1003.12 1003.52 1005.80 1006.90 1007.38 1007.52
1017.54 1016.88 1016.09 1015.26 1014.46 1013.86 1013.21 1012.59 1011.96 1011.52 1011.21 1011.08 1011.13 1010.24 1006.16 1004.39 1004.12 1004.15 1003.68 1003.53 1003.89 1004.10 1004.17 1003.28 1002.64 1002.28 1001.88 1001.46 1000.83 1000.28 999.87 998.89 998.40 998.70 998.78 999.98 1001.13 1003.10 1004.50 1005.28 1004.16 1005.62 1006.50 1007.14 1007.52
1017.32 1016.66 1015.96 1015.06 1014.06 1013.36 1012.76 1012.16 1011.46 1011.18 1011.07 1011.04 1010.58 1008.94 1004.62 1004.57 1004.02 1003.52 1003.47 1003.07 1003.41 1003.76 1003.54 1002.80 1002.68 1002.53 1002.47 1001.78 1000.96 1000.02 999.14 998.50 998.00 997.47 998.47 999.14 1001.44 1003.83 1004.99 1006.23 1004.59 1005.56 1005.99 1006.39 1007.19
1017.14 1016.37 1015.62 1014.80 1013.80 1013.03 1012.19 1011.31 1010.49 1010.76 1010.24 1009.75 1008.53 1007.13 1004.13 1003.20 1003.53 1003.52 1003.46 1003.17 1003.11 1003.22 1003.25 1003.19 1002.80 1002.66 1002.23 1001.56 1000.12 999.25 998.60 998.01 996.99 997.00 997.54 998.96 1001.08 1004.44 1004.46 1006.04 1006.95 1004.64 1005.60 1005.72 1006.32
1017.14 1016.36 1015.67 1014.71 1013.63 1012.95 1012.10 1009.60 1010.18 1009.64 1008.41 1006.19 1005.32 1004.24 1003.54 1003.33 1003.58 1003.26 1003.37 1003.18 1002.99 1003.08 1003.05 1003.10 1002.56 1001.86 1001.64 1001.34 1000.34 999.12 997.94 996.99 996.46 996.17 996.69 997.95 1000.53 1003.52 1004.74 1005.24 1005.61 1004.77 1004.82 1005.13 1005.38
1016.94 1016.10 1015.49 1014.68 1013.57 1012.37 1012.13 1009.12 1008.36 1008.07 1006.61 1004.64 1004.60 1004.29 1003.93 1003.47 1002.75 1003.01 1003.24 1002.91 1002.80 1002.70 1002.87 1002.37 1001.65 1001.66 1001.30 1000.62 1000.23 999.45 998.44 997.02 995.78 995.74 996.06 997.22 999.32 1002.76 1003.63 1004.15 1004.85 1005.22 1003.84 1004.36 1004.58
1016.74 1015.88 1015.22 1014.41 1013.44 1011.57 1009.53 1008.55 1007.94 1007.50 1006.38 1003.70 1003.90 1003.32 1003.34 1003.60 1002.50 1002.52 1003.19 1002.68 1002.25 1002.30 1001.92 1001.53 1000.70 1000.98 1000.78 1000.14 999.72 999.20 998.67 997.59 996.51 995.76 995.72 996.40 998.50 1002.26 1003.59 1003.71 1005.30 1005.06 1002.64 1003.49 1003.68
1016.50 1015.68 1015.10 1014.44 1013.10 1009.38 1007.97 1007.91 1007.32 1007.26 1005.58 1002.94 1003.40 1003.27 1003.62 1003.42 1002.80 1003.06 1003.41 1003.04 1002.04 1001.75 1001.35 1000.83 1000.72 999.86 999.84 999.75 999.58 998.90 998.57 998.26 997.44 996.87 996.05 996.36 997.44 999.07 1001.04 1001.51 1003.62 1002.21 1001.49 1002.39 1002.92
1016.18 1015.43 1014.78 1015.18 1012.51 1008.80 1008.20 1007.51 1007.54 1007.09 1004.34 1003.06 1003.00 1003.83 1003.21 1003.08 1003.08 1003.32 1003.74 1003.45 1002.53 1001.45 1001.26 1000.27 999.99 999.64 999.16 999.08 999.42 998.99 998.81 998.29 998.27 997.82 997.23 996.38 996.66 996.92 997.89 999.99 1001.36 1002.88 1001.87 1000.99 1001.92
1015.79 1015.07 1014.66 1011.86 1012.10 1008.75 1008.07 1007.61 1007.29 1006.09 1002.79 1002.77 1002.84 1003.15 1003.27 1003.07 1002.98 1003.26 1003.58 1003.77 1002.89 1002.46 1001.54 1000.61 999.89 999.26 999.19 999.26 999.31 999.39 999.30 999.05 998.73 998.36 997.33 996.74 996.11 995.51 996.22 998.44 1000.76 1001.63 1002.10 999.89 1000.60
1015.34 1014.43 1014.39 1012.04 1009.04 1008.44 1008.12 1007.24 1006.23 1004.02 1002.04 1003.00 1002.67 1003.07 1002.78 1002.34 1002.91 1003.50 1003.21 1003.15 1002.87 1002.43 1001.66 1000.98 1000.39 999.83 999.44 999.18 999.21 999.38 999.42 999.32 999.12 998.06 996.60 996.78 995.86 995.00 994.76 995.80 997.80 998.64 999.04 999.10 999.02
1014.76 1013.95 1012.12 1010.71 1009.09 1008.60 1008.13 1007.01 1005.18 1002.45 1002.48 1003.52 1003.75 1003.81 1003.44 1002.78 1002.87 1003.27 1003.69 1003.25 1002.83 1002.33 1001.88 1000.94 999.70 999.53 999.54 999.29 999.18 999.04 999.46 999.14 998.44 997.41 996.62 996.35 994.60 994.07 994.79 994.28 995.60 996.62 998.63 998.82 998.81
1013.99 1011.71 1010.80 1009.18 1008.86 1008.92 1007.92 1006.01 1004.73 1004.65 1005.08 1004.76 1004.79 1004.09 1003.57 1003.37 1004.18 1004.09 1003.87 1003.74 1002.90 1002.61 1002.69 1001.88 1000.65 999.50 998.70 999.18 999.63 999.31 998.78 999.36 998.88 997.69 996.48 995.14 994.46 994.00 993.70 993.54 993.97 995.54 996.63 998.34 999.75
1013.98 1010.40 1008.62 1008.58 1008.45 1008.32 1007.38 1005.81 1005.78 1006.76 1007.09 1006.54 1005.84 1005.41 1004.66 1003.81 1004.26 1004.48 1004.25 1003.91 1003.72 1004.16 1004.70 1004.32 1003.10 1001.10 999.85 999.50 999.47 999.54 999.48 998.94 998.89 997.92 996.24 994.93 993.60 992.23 992.56 992.64 992.98 993.52 995.03 996.48 997.15
1013.31 1009.44 1008.49 1008.25 1008.07 1007.40 1006.37 1006.86 1007.12 1007.89 1008.44 1007.99 1007.44 1007.05 1006.52 1006.01 1005.51 1005.21 1005.11 1004.80 1005.34 1005.51 1006.04 1006.22 1005.34 1003.18 1001.74 1000.00 999.66 1000.02 999.72 999.02 998.78 998.34 997.08 995.44 993.29 991.62 991.00 991.36 991.91 992.71 993.56 995.42 996.70
1011.24 1008.42 1008.55 1008.10 1007.58 1006.55 1007.16 1008.51 1009.36 1008.75 1008.87 1009.08 1009.10 1008.64 1008.33 1008.05 1007.60 1007.04 1006.70 1006.41 1007.02 1007.42 1007.20 1006.81 1006.42 1004.76 1003.13 1001.58 1000.43 1000.41 999.95 999.64 998.89 998.74 997.69 995.99 993.55 991.66 991.12 990.33 991.34 992.15 992.91 993.74 996.12
1011.74 1008.91 1008.43 1007.42 1007.31 1007.23 1008.95 1009.18 1010.04 1010.24 1010.15 1010.35 1010.09 1010.12 1010.25 1009.96 1009.63 1008.87 1008.38 1008.25 1008.69 1009.14 1009.14 1008.72 1007.54 1006.29 1005.03 1003.78 1001.72 1000.73 1000.76 1000.06 999.30 998.83 997.43 996.19 994.67 993.13 992.88 991.16 991.56 992.29 992.86 993.46 994.60
1012.56 1009.11 1008.41 1008.96 1009.42 1009.30 1009.74 1010.20 1010.62 1011.74 1011.72 1012.02 1011.92 1011.64 1011.40 1011.03 1010.59 1010.18 1009.82 1009.80 1010.11 1010.67 1010.98 1011.02 1009.80 1008.53 1006.50 1004.37 1003.86 1001.94 1001.08 1000.31 999.70 998.65 997.91 996.76 995.76 994.73 994.95 994.82 993.64 993.47 993.28 993.56 994.23
1012.40 1011.56 1011.78 1010.98 1011.34 1011.69 1011.76 1011.96 1012.22 1012.83 1013.20 1013.04 1012.68 1013.01 1013.06 1012.64 1012.11 1011.32 1010.90 1010.99 1010.94 1011.40 1011.72 1011.68 1010.82 1010.05 1008.56 1006.84 1005.68 1004.32 1002.60 1001.56 1000.38 999.44 998.51 997.68 997.20 996.94 997.78 997.84 996.94 995.96 994.65 994.58 994.60
1013.87 1012.73 1012.25 1012.80 1013.03 1013.02 1013.78 1014.23 1014.50 1014.62 1014.24 1013.56 1013.94 1014.07 1014.12 1014.22 1013.84 1013.10 1012.57 1012.22 1011.86 1012.24 1012.36 1012.50 1011.95 1011.37 1010.00 1008.95 1007.64 1005.63 1004.02 1003.06 1001.82 1000.31 999.57 998.84 998.64 998.66 1000.25 999.44 998.38 997.92 997.60 996.39 996.47
1014.67 1014.14 1013.22 1013.53 1013.65 1013.95 1015.43 1015.64 1015.82 1015.82 1015.23 1015.02 1015.20 1015.14 1014.83 1014.43 1014.37 1013.82 1013.58 1013.28 1012.75 1012.31 1012.70 1013.08 1013.14 1012.74 1011.33 1009.91 1008.44 1006.33 1004.79 1003.53 1002.65 1001.56 1000.79 1000.30 1000.19 1000.14 1000.91 1000.82 999.47 999.88 999.82 998.85 998.12
Wind_Speed
21 20 20 21 21 20 19 18 17 16 13 12 12 12 11 10 10 10 11 3 4 5 4 12 16 18 18 18 17 20 8 8 5 4 5 20 7 18 12 16 10 7 21 25 28
21 21 22 22 21 21 20 18 17 16 15 12 12 11 9 7 12 16 5 4 6 2 11 17 18 19 16 19 16 16 9 8 5 11 8 4 14 15 14 17 8 11 24 28 28
22 22 22 23 23 22 21 19 18 17 16 14 12 10 7 8 10 1 9 5 4 4 15 20 18 20 18 16 18 19 14 16 12 11 21 17 22 12 12 16 14 23 25 28 24
22 22 22 23 24 23 21 20 19 18 16 14 11 8 5 10 3 8 10 10 7 10 16 19 18 19 18 20 17 20 18 16 11 6 2 7 11 13 17 5 9 17 24 26 25
23 22 22 23 24 24 23 21 19 18 14 11 8 5 6 9 6 14 13 9 10 13 18 19 21 18 18 18 19 19 16 20 8 6 11 5 8 13 9 14 13 18 24 27 23
23 23 22 22 23 23 22 20 20 16 11 8 7 6 7 12 4 1 3 12 13 17 18 21 16 16 15 19 18 15 18 20 12 12 6 10 10 17 11 24 19 23 21 21 24
23 23 23 22 23 23 22 20 19 16 10 7 8 9 13 11 3 4 7 11 16 18 19 20 19 16 16 15 15 16 21 14 18 17 12 8 4 7 15 23 26 24 21 22 20
23 23 23 24 25 23 21 19 17 14 8 2 6 9 10 3 7 6 7 8 11 15 21 19 16 15 17 12 20 14 19 18 17 19 17 18 13 13 14 3 21 23 23 24 22
24 24 24 25 26 24 20 19 15 13 9 7 8 10 8 6 8 2 8 9 11 16 18 14 13 16 11 16 15 16 16 22 21 20 19 16 5 8 7 10 17 20 23 23 22
25 25 26 26 27 25 25 14 4 9 10 11 12 12 10 5 4 2 4 9 11 15 9 11 11 14 14 15 16 16 18 19 19 18 20 20 11 13 13 8 20 23 19 21 24
24 25 26 26 28 24 16 4 6 7 11 14 2 10 2 2 6 4 6 11 12 11 14 17 13 16 19 21 21 21 19 18 17 19 20 20 15 15 15 12 8 14 20 22 24
25 25 25 26 28 28 11 8 8 7 10 10 8 9 3 7 5 6 7 10 12 13 16 14 20 18 19 21 21 23 21 21 15 19 20 17 15 17 10 5 17 26 22 22 23
24 25 26 27 28 15 11 5 7 8 8 14 10 12 5 7 12 11 7 12 11 16 18 20 15 23 21 19 20 19 21 19 17 12 20 18 18 20 14 15 14 31 23 23 23
23 24 25 26 9 8 4 5 7 2 7 14 10 4 5 7 7 5 4 10 10 16 18 19 20 22 21 22 19 20 18 20 19 16 14 14 14 22 25 26 20 13 24 24 23
24 24 24 11 14 7 7 8 7 5 7 13 10 5 0 12 8 9 1 9 13 13 10 15 20 19 23 15 20 20 19 16 18 18 19 22 16 16 23 21 10 17 21 25 25
25 24 22 8 9 11 8 9 6 8 6 7 6 8 10 9 6 5 6 8 9 10 14 15 18 16 18 20 17 16 20 18 16 16 17 20 19 15 16 22 21 15 24 22 26
25 25 16 10 8 9 9 8 8 10 9 9 5 5 9 7 8 5 9 12 10 10 14 16 18 18 17 14 20 19 15 12 16 16 16 21 20 14 16 24 27 26 26 21 25
26 25 10 11 8 8 8 9 9 6 14 7 2 1 6 9 5 9 6 10 11 14 13 15 13 21 18 20 17 21 20 15 20 15 18 21 21 18 22 23 29 28 19 11 25
29 10 11 7 4 6 8 10 7 13 16 10 10 8 10 11 4 12 6 13 16 14 9 11 18 21 8 19 17 22 20 21 25 22 19 16 18 26 20 23 20 25 24 11 31
9 11 4 7 4 7 8 10 9 14 11 9 9 10 11 11 10 6 8 8 5 9 8 10 18 20 18 12 13 18 19 21 16 22 23 19 23 14 21 19 20 19 25 27 19
6 7 8 8 5 8 7 5 9 9 9 10 12 11 13 14 15 13 9 10 5 10 1 10 14 21 20 17 17 16 17 22 15 16 18 17 16 17 21 23 19 21 18 25 24
8 3 7 5 7 2 10 8 3 9 6 5 4 6 7 10 13 16 14 15 13 10 15 10 12 16 19 23 15 15 18 22 15 18 17 19 17 12 17 23 18 15 17 16 27
7 4 5 10 4 5 4 7 8 11 9 12 9 10 11 11 8 8 11 13 13 11 6 11 12 12 17 18 22 15 23 24 22 22 19 17 18 17 13 6 17 16 15 13 12
8 2 5 6 9 10 4 7 5 7 9 8 6 9 8 10 8 8 9 7 4 5 10 11 13 17 16 15 15 15 20 20 24 17 18 19 19 19 13 21 11 8 7 11 9
4 8 5 9 11 10 11 11 11 8 10 8 2 4 7 6 12 12 10 10 12 8 8 8 16 20 22 27 20 21 19 15 22 21 21 18 22 14 20 19 20 20 5 9 7
7 6 7 7 5 6 5 6 7 9 6 6 6 11 10 4 9 16 14 14 9 10 7 9 10 19 20 22 21 24 22 20 22 29 23 23 20 16 18 20 18 17 25 12 15
3 1 4 5 7 5 7 9 6 4 8 2 8 8 10 10 10 13 14 15 17 11 13 6 5 8 17 18 21 22 24 19 18 18 13 18 19 16 8 14 14 15 16 18 12
Wind_Direction
346 346 346 344 341 338 334 328 323 320 314 308 303 299 300 297 288 238 243 84 276 139 284 213 217 222 210 238 230 242 277 295 311 63 319 267 188 136 152 120 135 124 144 151 161
345 343 343 342 340 337 333 329 324 320 313 306 300 296 295 297 268 257 195 111 106 67 211 213 202 213 216 228 233 247 261 329 8 120 231 268 272 20 148 126 140 132 129 150 166
344 342 342 340 339 336 331 327 322 317 309 302 297 293 290 274 273 326 140 172 155 223 239 230 205 207 221 223 228 234 245 226 277 259 180 198 243 149 174 146 163 131 145 156 155
340 340 340 338 336 334 330 325 321 314 304 294 289 281 267 242 322 107 171 193 191 236 226 250 219 208 222 228 234 241 257 235 261 314 329 360 143 323 99 139 252 147 157 159 151
338 336 337 335 333 331 329 324 322 315 303 288 273 246 233 219 249 140 164 176 196 202 219 231 217 212 221 234 233 251 246 280 180 221 256 215 105 112 155 171 204 146 159 162 158
335 334 333 333 330 329 327 323 321 319 308 279 244 198 244 249 62 139 230 166 203 198 217 236 215 220 229 244 252 240 236 258 260 249 194 269 166 164 191 161 179 139 157 168 161
333 332 331 331 329 328 324 322 317 316 310 274 212 227 252 280 324 279 216 204 203 197 213 234 232 234 235 243 268 274 266 267 251 265 194 206 247 351 116 161 138 151 162 172 178
331 332 330 328 326 326 322 318 307 300 303 255 204 234 279 37 296 230 210 205 183 197 220 225 237 246 242 257 265 264 250 257 246 229 247 206 214 70 92 277 143 159 165 175 178
329 331 330 328 325 326 322 312 293 285 271 245 236 228 244 136 218 143 240 196 193 195 220 242 222 244 244 253 255 228 242 236 250 219 231 207 152 104 62 10 157 165 170 173 174
328 330 330 329 324 326 323 279 262 293 224 234 256 259 231 187 71 303 207 267 194 197 205 235 217 229 228 230 227 233 226 244 235 243 196 232 159 131 127 252 281 159 178 175 172
327 328 327 327 322 323 331 293 207 196 237 266 254 256 111 69 217 220 164 219 197 183 209 206 213 217 226 232 239 266 274 233 238 230 234 205 160 148 171 213 223 232 176 183 175
325 325 326 324 320 315 282 284 34 329 295 230 256 263 290 304 217 152 202 206 192 205 212 206 228 227 232 237 232 249 267 275 260 246 219 208 186 159 138 347 256 258 172 191 182
323 322 324 323 318 291 257 12 315 304 265 237 203 238 184 230 256 119 233 221 220 224 216 228 224 216 238 239 244 232 250 260 271 276 255 224 201 155 189 182 247 256 172 187 184
321 320 322 326 293 265 228 348 310 343 268 154 179 209 198 243 241 102 277 294 233 249 221 237 233 262 208 239 240 244 243 251 269 270 262 212 253 188 185 183 202 235 172 181 189
319 318 319 318 312 288 355 313 324 235 270 155 114 84 126 230 102 170 104 269 260 251 241 249 238 233 253 239 230 253 255 256 250 266 268 262 222 244 187 183 151 248 235 182 182
317 317 326 259 212 284 310 311 246 234 230 128 119 179 193 209 215 119 218 219 310 292 285 275 282 254 244 254 248 250 251 265 263 240 249 249 255 230 215 178 174 165 254 193 179
316 315 314 303 307 337 312 271 228 249 151 140 198 162 233 203 187 222 241 212 237 221 232 235 245 263 265 258 241 229 242 231 238 239 240 234 244 242 255 174 177 189 215 210 177
316 312 268 254 282 309 287 251 257 333 72 74 334 355 278 310 206 239 226 267 260 270 291 287 250 212 222 237 247 232 222 232 230 234 238 231 238 228 248 264 190 183 199 200 250
310 258 234 229 318 285 264 234 11 11 13 15 334 259 261 243 178 311 295 292 284 346 254 280 261 277 284 215 218 248 231 235 257 257 248 250 217 242 239 241 246 171 164 187 259
311 291 123 317 315 256 247 263 87 37 7 339 315 319 309 307 178 217 251 317 321 41 338 308 307 293 295 219 244 232 256 227 230 250 259 255 249 233 214 229 235 239 186 172 189
251 234 51 336 239 241 263 60 40 48 11 351 343 321 320 315 314 308 301 296 16 299 157 295 287 282 292 276 216 220 246 258 273 236 255 259 260 260 206 203 208 227 240 178 190
289 302 15 297 255 274 46 19 313 26 22 343 296 297 306 320 301 297 289 313 28 332 311 280 289 286 270 273 263 247 259 243 246 239 266 252 254 24 341 186 194 216 229 215 183
278 35 37 312 317 49 94 96 50 8 16 14 334 15 341 316 317 296 307 323 16 357 354 316 264 271 258 272 269 230 233 255 249 250 251 235 247 267 332 214 183 199 239 229 212
282 332 85 47 16 352 341 59 53 69 64 349 326 320 340 311 263 262 278 283 34 293 350 316 275 276 279 258 342 292 239 252 250 243 243 250 245 243 15 360 24 7 221 242 225
317 51 337 7 33 40 8 6 41 7 2 9 200 15 1 324 333 300 331 325 304 311 296 254 264 267 275 287 295 286 286 288 257 251 249 244 245 254 24 348 331 357 338 358 323
344 341 92 52 70 61 61 43 19 357 333 7 347 351 336 313 301 310 300 299 303 295 221 304 286 273 258 271 287 275 264 264 279 243 249 261 287 302 76 309 300 347 346 35 9
23 296 288 137 26 29 38 17 355 339 297 32 349 342 315 340 318 301 295 282 264 247 267 246 262 284 261 268 283 259 254 245 262 273 276 262 270 293 318 275 323 317 331 323 352